Location: Zapote
(9.9191°N, 84.0597°W)
Time: 17:29:56
(UTC-06:00)

Transit 2A - Pass Details

Date: 09 March 2021
Orbit: 602 x 957 km, 66.7° (Epoch: 16 April)

Event Time Altitude Azimuth Distance (km) Brightness Sun altitude
Rises 15:05:08 0° 194° (SSW) 3,547 9.7 38.6°
Reaches altitude 10° 15:07:46 10° 191° (S) 2,566 9.1 38.0°
Maximum altitude 15:13:40 64° 110° (ESE) 927 6.7 36.6°
Drops below altitude 10° 15:19:01 10° 29° (NNE) 2,338 8.3 35.3°
Sets 15:21:19 0° 26° (NNE) 3,210 8.9 34.7°
